Regional Weather Roundup
Issued by NWS Midland/Odessa, TX

Skip options and go directly to product.
Home | Oldest Version | Previous Version | Current Version | All | Graphics & Text | Save Text | Print | Product List | Glossary On

Skip product version selection by date and time.   
525
ASUS44 KMAF 061110
RWRMAF
MIDLAND AREA WEATHER ROUNDUP
NATIONAL WEATHER SERVICE MIDLAND TX
600 AM CDT WED MAY 06 2015

...IN SOUTHWEST TEXAS AND SOUTHEAST NEW MEXICO...

CITY           SKY/WX    TMP DP  RH WIND       PRES   REMARKS
ALPINE         CLEAR     49  39  67 SW9       30.03R
ANDREWS        CLOUDY    64  64 100 S15G22    29.89S
ARTESIA        CLEAR     52  45  76 NW6       29.88R
BIG SPRING     CLEAR     65  62  90 SE10      29.90S
CARLSBAD       CLEAR     58  43  57 SW3       29.87R
DRYDEN           N/A     72  67  84 SE10      29.86S
FORT STOCKTON  CLEAR     63  61  93 S9        29.89S
GUAD PASS      CLEAR     53  35  50 SW15      29.99S
HOBBS          CLOUDY    59  59 100 S12       29.91R FOG
MARFA          CLEAR     43  30  61 CALM      30.00S
MIDLAND AIRPK  CLOUDY    68  63  85 S9        29.89S
MIDLAND INTL   CLOUDY    67  63  87 S13       29.88S
ODESSA         CLOUDY    67  62  84 S17       29.89S
PECOS          CLEAR     51  38  62 S6        29.88R
PRESIDIO       FAIR      67  40  36 MISG      29.88R
SEMINOLE       CLOUDY    63  62  97 SW13G20   29.90R FOG
SNYDER         CLEAR     64  63  97 S8        29.89R
WINK           CLEAR     62  59  90 SE7       29.86R FOG
$$
...OTHER STATIONS IN TEXAS...

CITY           SKY/WX    TMP DP  RH WIND       PRES   REMARKS
ABILENE        MOCLDY    68  65  90 SE9       29.88R
AMARILLO       CLEAR     52  49  89 S9        29.81R
AUSTIN         CLOUDY    71  70  96 S10       29.92R
BROWNSVILLE    MOCLDY    76  72  87 SE14      29.86F
CORPUS CHRISTI MOCLDY    75  71  87 SE15      29.89R
DALLAS FTW     CLOUDY    68  66  93 SE13      29.93S
DEL RIO        CLOUDY    73  69  87 SE14      29.84R
EL PASO        CLEAR     61  39  44 SW9       29.93S
HOUSTON INT    CLOUDY    74  69  85 SE14      29.95R
LUBBOCK        CLOUDY    63  60  90 SW25G32   29.85R
SAN ANGELO     PTCLDY    67  64  90 CALM      29.87S
SAN ANTONIO    CLOUDY    73  69  87 SE14      29.92R
WACO           LGT RAIN  69  67  93 SE12      29.95S
WICHITA FALLS  NOT AVBL
$$
...OTHER LOCATIONS IN NEW MEXICO...

CITY           SKY/WX    TMP DP  RH WIND       PRES   REMARKS
ALAMAGORDO     PTCLDY    55  36  47 E5        29.93S
ALBUQUERQUE    MOCLDY    53  43  68 S7        29.94S
CANNON AFB     NOT AVBL
CLOVIS         CLEAR     50  45  81 SW9       29.85S
HOLLOMAN AFB   PTCLDY    56  39  52 NE3       29.91S
ROSWELL        PTCLDY    50  46  86 NW5       29.87S
RUIDOSO        CLEAR     46  34  61 NW5       30.01S
SANTA FE       PTCLDY    46  42  86 SW9       29.93R
TRUTH OR CONSE PTCLDY    54  38  54 NW9       29.95R
TUCUMCARI      CLEAR     52  46  80 SW13      29.78S
$$

USA.gov is the U.S. government's official web portal to all federal, state and local government web resources and services.